Snowfall_Accumulation
0.0 0.0 0.0 0.0 0.0 0.0 0.0 0.0 0.0 0.0 0.0 0.0 0.0 0.0 0.0 0.0 0.0 0.0 0.0 0.0 0.0 0.0 0.0 0.0 0.0 0.0 0.0 0.0 0.0 0.0 0.0 0.0 0.0 0.0 0.0 0.0 0.0 0.0 0.0 0.0 0.0 0.0 0.0 0.0 0.0 0.0 0.0 0.0 0.0
0.0 0.0 0.0 0.0 0.0 0.0 0.0 0.0 0.0 0.0 0.0 0.0 0.0 0.1 0.1 0.0 0.0 0.0 0.0 0.0 0.0 0.0 0.0 0.0 0.0 0.0 0.0 0.0 0.0 0.0 0.0 0.0 0.0 0.0 0.0 0.0 0.0 0.0 0.0 0.0 0.0 0.0 0.0 0.0 0.0 0.0 0.0 0.0 0.0
0.0 0.0 0.0 0.0 0.0 0.0 0.0 0.0 0.0 0.0 0.0 0.0 0.0 0.1 0.1 0.1 0.0 0.0 0.0 0.0 0.0 0.0 0.0 0.0 0.0 0.0 0.0 0.0 0.0 0.0 0.0 0.0 0.0 0.0 0.0 0.0 0.0 0.0 0.0 0.0 0.0 0.0 0.0 0.0 0.0 0.0 0.0 0.0 0.0
0.0 0.0 0.0 0.0 0.0 0.0 0.1 0.1 0.0 0.0 0.0 0.0 0.0 0.1 0.0 0.0 0.0 0.0 0.0 0.0 0.0 0.0 0.0 0.0 0.0 0.0 0.0 0.0 0.0 0.0 0.0 0.0 0.0 0.0 0.0 0.0 0.0 0.0 0.0 0.0 0.0 0.0 0.0 0.0 0.0 0.0 0.0 0.0 0.0
0.0 0.0 0.0 0.1 0.0 0.0 0.1 0.1 0.0 0.0 0.0 0.0 0.0 0.1 0.1 0.0 0.0 0.0 0.0 0.0 0.0 0.0 0.0 0.0 0.0 0.0 0.0 0.0 0.0 0.0 0.0 0.0 0.0 0.0 0.0 0.0 0.0 0.0 0.0 0.0 0.0 0.0 0.0 0.0 0.0 0.0 0.0 0.0 0.0
0.0 0.0 0.3 0.3 0.1 0.0 0.0 0.0 0.0 0.0 0.0 0.0 0.0 0.1 0.0 0.0 0.0 0.0 0.0 0.0 0.0 0.0 0.0 0.0 0.0 0.0 0.0 0.0 0.0 0.0 0.0 0.0 0.0 0.0 0.0 0.0 0.0 0.0 0.0 0.0 0.0 0.0 0.0 0.0 0.0 0.0 0.0 0.0 0.0
0.0 0.0 0.6 0.5 0.3 0.1 0.0 0.0 0.0 0.0 0.0 0.0 0.0 0.1 0.1 0.0 0.0 0.0 0.0 0.0 0.0 0.0 0.0 0.0 0.0 0.0 0.0 0.0 0.0 0.0 0.0 0.0 0.0 0.0 0.0 0.0 0.0 0.0 0.0 0.0 0.0 0.0 0.0 0.0 0.0 0.0 0.0 0.0 0.0
0.0 0.0 0.7 0.4 0.4 0.1 0.0 0.0 0.0 0.0 0.0 0.0 0.0 0.0 0.0 0.0 0.0 0.0 0.0 0.0 0.0 0.0 0.0 0.0 0.0 0.0 0.0 0.0 0.0 0.0 0.0 0.0 0.0 0.0 0.0 0.0 0.0 0.0 0.0 0.0 0.0 0.0 0.0 0.0 0.0 0.0 0.0 0.0 0.0
0.0 0.7 1.3 0.5 0.3 0.1 0.0 0.0 0.0 0.0 0.0 0.0 0.0 0.0 0.0 0.0 0.0 0.0 0.0 0.0 0.0 0.0 0.0 0.0 0.0 0.0 0.0 0.0 0.0 0.0 0.0 0.0 0.0 0.0 0.0 0.0 0.0 0.0 0.0 0.0 0.0 0.0 0.0 0.0 0.0 0.0 0.0 0.0 0.0
0.0 1.9 1.2 0.1 0.1 0.1 0.1 0.1 0.1 0.0 0.1 0.1 0.0 0.0 0.0 0.0 0.0 0.0 0.0 0.0 0.0 0.0 0.0 0.0 0.0 0.0 0.0 0.0 0.0 0.0 0.0 0.0 0.0 0.0 0.0 0.0 0.0 0.0 0.0 0.0 0.0 0.0 0.0 0.0 0.0 0.0 0.0 0.0 0.0
0.2 1.0 0.6 0.2 0.1 0.1 0.1 0.1 0.0 0.0 0.1 0.1 0.1 0.1 0.0 0.0 0.0 0.0 0.0 0.0 0.0 0.0 0.0 0.0 0.0 0.0 0.0 0.0 0.0 0.0 0.0 0.0 0.0 0.0 0.0 0.0 0.0 0.0 0.0 0.0 0.0 0.0 0.0 0.0 0.0 0.0 0.0 0.0 0.0
0.6 0.3 0.5 0.3 0.1 0.0 0.0 0.0 0.0 0.1 0.2 0.1 0.1 0.1 0.0 0.0 0.0 0.0 0.0 0.0 0.0 0.0 0.0 0.0 0.0 0.0 0.0 0.0 0.0 0.0 0.0 0.0 0.0 0.0 0.0 0.0 0.0 0.0 0.0 0.0 0.0 0.0 0.0 0.0 0.0 0.0 0.0 0.0 0.0
1.0 0.5 0.3 0.1 0.1 0.1 0.1 0.0 0.0 0.1 0.1 0.1 0.1 0.0 0.0 0.0 0.0 0.0 0.0 0.0 0.0 0.0 0.0 0.0 0.0 0.0 0.0 0.0 0.0 0.0 0.0 0.0 0.0 0.0 0.0 0.0 0.0 0.0 0.0 0.0 0.0 0.0 0.0 0.0 0.0 0.0 0.0 0.0 0.0
0.7 0.5 0.2 0.1 0.2 0.1 0.1 0.1 0.2 0.3 0.1 0.1 0.0 0.0 0.0 0.0 0.0 0.0 0.0 0.0 0.0 0.0 0.0 0.0 0.0 0.0 0.0 0.0 0.0 0.0 0.0 0.0 0.0 0.0 0.0 0.0 0.0 0.0 0.0 0.0 0.0 0.0 0.0 0.0 0.0 0.0 0.0 0.0 0.0
0.3 0.7 0.5 0.3 0.2 0.2 0.2 0.3 0.3 0.4 0.3 0.2 0.1 0.0 0.0 0.0 0.0 0.0 0.0 0.0 0.0 0.0 0.0 0.0 0.0 0.0 0.0 0.0 0.0 0.0 0.0 0.0 0.0 0.1 0.0 0.0 0.0 0.0 0.0 0.0 0.0 0.0 0.0 0.0 0.0 0.0 0.0 0.0 0.0
0.6 1.6 2.2 0.7 0.3 0.1 1.2 2.7 0.5 0.4 0.3 0.2 0.1 0.1 0.1 0.0 0.0 0.0 0.0 0.0 0.0 0.0 0.0 0.0 0.0 0.0 0.0 0.0 0.0 0.0 0.0 0.0 0.0 0.0 0.0 0.0 0.0 0.0 0.0 0.0 0.0 0.0 0.0 0.0 0.0 0.0 0.0 0.0 0.0
4.0 4.2 2.7 1.4 0.3 0.5 1.9 2.4 0.6 0.3 0.1 0.1 0.2 0.2 0.1 0.1 0.0 0.0 0.1 0.0 0.0 0.0 0.0 0.0 0.0 0.0 0.0 0.0 0.0 0.0 0.0 0.0 0.0 0.0 0.0 0.0 0.0 0.0 0.0 0.0 0.1 0.0 0.0 0.0 0.0 0.0 0.0 0.0 0.0
5.0 3.7 2.3 1.5 0.7 1.1 1.9 1.6 0.5 0.2 0.1 0.1 0.1 0.1 0.1 0.2 0.0 0.0 0.0 0.0 0.0 0.0 0.0 0.0 0.0 0.0 0.0 0.0 0.0 0.0 0.0 0.0 0.0 0.0 0.1 0.1 0.0 0.0 0.0 0.0 0.0 0.0 0.0 0.0 0.0 0.1 0.1 0.0 0.0
3.2 3.5 2.8 1.4 0.5 1.7 1.9 1.2 0.5 0.2 0.1 0.2 0.1 0.1 0.1 0.1 0.1 0.0 0.0 0.0 0.0 0.0 0.0 0.0 0.0 0.0 0.0 0.0 0.0 0.0 0.0 0.0 0.0 0.0 0.1 0.0 0.1 0.0 0.0 0.0 0.0 0.0 0.0 0.2 0.0 0.1 0.2 0.1 0.1
3.5 4.8 3.5 2.2 1.0 1.9 1.9 1.1 0.5 0.2 0.3 0.3 0.3 0.3 0.2 0.1 0.0 0.0 0.0 0.0 0.0 0.0 0.0 0.0 0.0 0.0 0.0 0.0 0.0 0.0 0.0 0.0 0.0 0.0 0.0 0.2 0.1 0.0 0.0 0.0 0.0 0.1 0.0 0.2 0.1 0.2 0.4 0.3 0.1
4.3 4.0 3.4 3.2 2.1 1.7 3.0 2.0 0.9 0.4 0.3 0.2 0.1 0.2 0.3 0.3 0.5 0.0 0.0 0.0 0.4 0.0 0.0 0.0 0.0 0.0 0.0 0.0 0.0 0.0 0.0 0.0 0.0 0.0 0.0 0.1 0.2 0.1 0.0 0.0 0.0 0.0 0.0 0.2 0.2 0.2 0.6 0.7 0.5
4.9 1.8 2.5 3.3 5.5 5.8 4.3 6.3 1.3 0.9 0.7 0.5 0.3 0.2 0.1 0.2 0.3 0.1 0.1 0.0 0.1 0.6 0.0 0.3 0.0 0.0 0.0 0.0 0.0 0.0 0.0 0.0 0.0 0.0 0.0 0.1 0.1 0.1 0.1 0.0 0.0 0.0 0.0 0.2 0.2 0.2 0.5 1.1 1.3
3.3 1.6 2.2 3.5 6.3 8.0 4.5 6.8 2.2 1.0 1.2 1.1 0.5 0.3 0.3 0.2 0.2 0.3 0.1 0.2 0.1 0.6 0.6 0.4 0.1 0.0 0.0 0.0 0.0 0.0 0.0 0.0 0.0 0.0 0.0 0.0 0.1 0.1 0.1 0.0 0.0 0.1 0.1 0.1 0.2 0.3 0.5 1.0 1.6
2.0 2.3 2.8 4.3 8.4 15.6 5.3 5.6 3.4 2.1 2.4 1.8 0.9 0.7 0.7 0.6 0.3 0.3 0.1 0.1 0.0 0.0 0.1 0.0 0.1 0.1 0.0 0.0 0.0 0.0 0.1 0.0 0.0 0.0 0.0 0.0 0.1 0.1 0.1 0.1 0.0 0.1 0.2 0.3 0.3 0.4 0.6 0.8 1.1
4.6 10.7 20.2 22.1 22.5 13.1 2.1 3.8 3.8 2.5 2.4 2.6 2.5 1.9 1.3 1.0 0.5 0.4 0.5 0.4 0.2 0.1 0.2 0.2 0.2 0.0 0.1 0.1 0.2 0.0 0.3 0.3 0.0 0.0 0.0 0.1 0.2 0.2 0.2 0.1 0.1 0.1 0.2 0.4 0.6 0.7 0.8 0.9 1.2
4.9 8.9 15.9 15.0 10.0 4.4 2.6 3.7 3.3 2.7 2.4 2.1 2.0 1.9 1.1 0.8 0.5 0.6 0.5 0.6 0.2 0.2 0.1 0.2 0.2 0.2 0.1 0.1 0.2 0.2 0.0 0.3 0.0 0.0 0.0 0.1 0.2 0.1 0.2 0.2 0.2 0.1 0.3 0.5 0.8 0.8 0.9 1.0 1.4
6.3 7.4 5.9 10.1 7.9 5.2 4.1 3.4 2.6 1.8 1.5 1.7 1.9 1.6 1.6 1.1 0.8 0.6 0.8 0.7 0.7 0.4 0.3 0.4 0.3 0.2 0.2 0.1 0.1 0.2 0.2 0.2 0.4 0.1 0.1 0.1 0.1 0.1 0.3 0.3 0.4 0.4 0.7 0.7 0.9 1.2 1.2 1.3 1.5
3.9 5.5 7.6 14.0 12.9 7.7 4.4 3.2 4.0 3.0 2.3 2.0 2.2 2.5 2.0 1.7 1.2 0.8 0.8 0.9 0.5 0.6 0.5 0.4 0.4 0.3 0.3 0.1 0.1 0.1 0.1 0.2 0.3 0.1 0.2 0.2 0.2 0.2 0.4 0.3 0.6 0.5 0.7 0.9 1.1 1.4 1.4 1.6 1.6
6.0 7.8 9.5 11.2 9.5 8.3 6.1 4.8 4.7 3.9 3.5 3.1 2.7 2.7 2.5 2.4 2.2 1.7 1.0 0.8 0.8 0.5 0.3 0.5 0.5 0.3 0.3 0.2 0.2 0.2 0.2 0.1 0.2 0.3 0.3 0.3 0.3 0.5 0.6 0.8 1.0 1.2 1.3 1.2 1.3 1.5 1.7 1.7 1.6
6.0 7.6 8.9 12.5 9.6 5.7 6.0 5.5 3.6 2.9 3.2 3.0 2.9 2.7 2.5 2.7 2.7 2.2 1.4 0.9 0.7 1.0 0.9 0.7 0.7 0.6 0.6 0.3 0.6 0.5 0.3 0.5 0.5 0.6 0.4 0.4 0.5 0.7 0.9 1.4 1.2 1.4 1.7 1.6 1.9 2.2 2.0 2.0 2.1